Nos coordonnées

Nous sommes à votre écoute du lundi au dimanche de 10:00 à 19:00 au :

+32 (0)495 19 89 53

 

Adresse d'exploitation Adresse de facturation
Chaussée de Nivelles, 629
6230 Buzet
Belgique
Kouter 107/2
9000 Gent
Belgique

contact @ blackhelicopters.be (n'oubliez pas de supprimer les espaces)


Nous retrouver

Il est très fortement conseillé de nous appeler avant de venir sur le terrain, nous pouvons être en mission ou en vol!

 

La carte ci-dessous est interactive, cherchez vos itinéraires, déplacez la pour vous retrouver.

News

Votre panier

Le panier est vide

Météo Charleroi

METAR
EBCI 231950Z 35005KT 9999 BKN026 15/11 Q1021 NOSIG =
EBCI 231710Z 2318/2424 02006KT 9999 BKN025 PROB30 TEMPO 2402/2406 BKN005
TAF
EBCI 231710Z 2318/2424 02006KT 9999 BKN025 PROB30 TEMPO 2402/2406 BKN005 =
Lever / Coucher : 03:32 / 19:58 UTC (Buzet 2021-06-23)